Location: Ferma
(41.9500°N, 44.5167°E)
Time: 18:44:29
(UTC+00:00)

Cosmos 2360 Rocket - Pass Details

Date: 24 October 2021
Orbit: 832 x 846 km, 71.0° (Epoch: 02 December)

Event Time Altitude Azimuth Distance (km) Brightness Sun altitude
Rises 16:31:38 0° 223° (SW) 3,375 5.8 -27.5°
Reaches altitude 10° 16:34:12 10° 231° (SW) 2,447 5.1 -28.0°
Maximum altitude 16:39:30 42° 301° (WNW) 1,192 3.3 -29.0°
Enters shadow 16:44:28 12° 10° (N) 2,337 4.5 -29.9°
